DW2465 Weather Reports


time (UTC)temp
C
wind
direction
speed
KPH
gust
KPH
rain 1hr
cm
rain 24hr
cm
rain mn
cm
humidity
%
barometer
mb
20260510151536 10 315 0.0 0.0 0.00 0.00 0.00 49 1019.7
20260510150040 10 297 0.0 0.0 0.00 0.00 0.00 49 1019.7
20260510144541 9 299 0.0 0.0 0.00 0.00 0.00 51 1019.7
20260510143035 9 360 0.0 0.0 0.00 0.00 0.00 51 1019.7
20260510141525 9 26 0.0 0.0 0.00 0.00 0.00 52 1019.5
20260510140023 9 286 0.0 0.0 0.00 0.00 0.00 53 1019.4
20260510134521 8 309 0.0 0.0 0.00 0.00 0.00 55 1019.3
20260510133018 8 31 0.0 0.0 0.00 0.00 0.00 58 1019.3
20260510131523 7 360 0.0 0.0 0.00 0.00 0.00 62 1019.2
20260510130014 7 346 0.0 0.0 0.00 0.00 0.00 61 1019.2
20260510124520 7 345 0.0 0.0 0.00 0.00 0.00 63 1019.1
20260510123012 6 345 0.0 0.0 0.00 0.00 0.00 64 1019.0
20260510121511 6 345 0.0 0.0 0.00 0.00 0.00 64 1018.7
20260510120008 6 336 0.0 0.0 0.00 0.00 0.00 64 1018.6
20260510114502 6 303 0.0 0.0 0.00 0.00 0.00 62 1018.4
20260510113100 6 300 0.0 0.0 0.00 0.00 0.00 61 1018.2
20260510113000 6 302 0.0 0.0 0.00 0.00 0.00 62 1018.2
20260510111559 6 282 0.0 0.0 0.00 0.00 0.00 61 1017.9
20260510110029 6 279 0.0 0.0 0.00 0.00 0.00 60 1017.7
20260510104528 6 285 0.0 0.0 0.00 0.00 0.00 61 1017.5
20260510103053 6 284 0.0 0.0 0.00 0.00 0.00 60 1017.2
20260510101553 6 288 0.0 0.0 0.00 0.00 0.00 60 1017.0
20260510100107 6 289 0.0 0.0 0.00 0.00 0.00 61 1017.0
20260510094558 6 277 0.0 0.0 0.00 0.00 0.00 61 1016.6
20260510093042 6 279 0.0 0.0 0.00 0.00 0.00 60 1016.4
20260510091542 6 279 0.0 0.0 0.00 0.00 0.00 59 1016.3
20260510090046 6 267 0.0 0.0 0.00 0.00 0.00 58 1016.1
20260510084549 6 261 0.0 0.0 0.00 0.00 0.00 57 1016.1
20260510083033 6 273 0.0 0.0 0.00 0.00 0.00 59 1015.8
20260510081544 6 265 0.0 0.0 0.00 0.00 0.00 58 1015.6
20260510080012 6 265 0.0 0.0 0.00 0.00 0.00 59 1015.4
20260510074600 6 265 0.0 0.0 0.00 0.00 0.00 59 1015.3
20260510073027 7 268 0.0 0.0 0.00 0.00 0.00 56 1015.5
20260510071526 7 269 0.0 0.0 0.00 0.00 0.00 53 1015.3
20260510070056 7 273 0.0 0.0 0.00 0.00 0.00 52 1015.5
20260510064554 7 273 0.0 0.0 0.00 0.00 0.00 50 1015.5
20260510063021 7 285 0.0 0.0 0.00 0.00 0.00 50 1015.4
20260510061521 7 306 0.0 0.0 0.00 0.00 0.00 49 1015.4
20260510060053 8 306 0.0 0.0 0.00 0.00 0.00 49 1015.3
20260510054549 8 306 0.0 0.0 0.00 0.00 0.00 49 1015.2
20260510053042 8 306 0.0 0.0 0.00 0.00 0.00 50 1015.1
20260510051545 8 307 0.0 0.0 0.00 0.00 0.00 50 1015.0
20260510050040 8 308 0.0 0.0 0.00 0.00 0.00 47 1015.0
20260510044538 8 308 0.0 0.0 0.00 0.00 0.00 46 1014.9
20260510043032 8 308 0.0 0.0 0.00 0.00 0.00 44 1014.9
20260510041529 9 307 0.0 0.0 0.00 0.00 0.00 43 1014.9
20260510040026 9 260 0.0 0.0 0.00 0.00 0.00 42 1014.8
20260510034529 10 301 0.0 0.0 0.00 0.00 0.00 42 1014.7
20260510033132 10 302 0.0 0.0 0.00 0.00 0.00 41 1014.6
20260510031610 10 285 0.0 0.0 0.00 0.00 0.00 40 1014.3
20260510030056 10 296 0.0 0.0 0.00 0.00 0.00 40 1013.9
20260510024548 10 286 0.0 0.0 0.00 0.00 0.00 39 1013.7
20260510023045 10 302 0.0 0.0 0.00 0.00 0.00 38 1013.4
20260510021543 11 279 0.0 0.0 0.00 0.00 0.00 38 1013.0
20260510020043 11 302 0.0 0.0 0.00 0.00 0.00 37 1012.6
20260510014541 11 281 0.0 0.0 0.00 0.00 0.00 36 1012.5
20260510013032 12 304 0.0 0.0 0.00 0.00 0.00 35 1012.2
20260510011539 12 290 0.0 0.0 0.00 0.00 0.00 35 1011.8
20260510010027 12 279 0.0 0.0 0.00 0.00 0.00 34 1011.7
20260510004526 13 310 0.0 0.0 0.00 0.00 0.00 33 1011.5
20260510003026 13 284 0.0 0.0 0.00 0.00 0.00 32 1011.3
20260510001526 13 308 0.0 0.0 0.00 0.00 0.00 32 1011.1
20260510000018 13 317 0.0 0.0 0.00 0.00 0.00 33 1010.8
20260509234516 13 311 0.0 0.0 0.00 0.00 0.00 32 1010.7
20260509233014 13 266 0.0 0.0 0.00 0.00 0.00 30 1010.6
20260509231515 13 360 0.0 0.0 0.00 0.00 0.00 32 1010.5
20260509230010 14 324 0.0 0.0 0.00 0.00 0.00 31 1010.3
20260509224509 14 319 0.0 0.0 0.00 0.00 0.00 31 1010.2
20260509223006 14 304 0.0 0.0 0.00 0.00 0.00 30 1010.0
20260509221506 14 325 0.0 0.0 0.00 0.00 0.00 30 1009.9
20260509220002 14 290 0.0 0.0 0.00 0.00 0.00 32 1009.6
20260509214502 14 329 0.0 0.0 0.00 0.00 0.00 32 1009.6
20260509213101 14 302 0.0 0.0 0.00 0.00 0.00 32 1009.4
20260509211603 14 269 0.0 0.0 0.00 0.00 0.00 32 1009.5
20260509211501 14 261 0.0 0.0 0.00 0.00 0.00 32 1009.3
20260509210108 13 294 0.0 0.0 0.00 0.00 0.00 31 1009.4
20260509204601 14 327 0.0 0.0 0.00 0.00 0.00 32 1009.4
20260509203057 13 327 0.0 0.0 0.00 0.00 0.00 30 1009.3
20260509201556 13 332 0.0 0.0 0.00 0.00 0.00 32 1009.3
20260509200105 13 14 0.0 0.0 0.00 0.00 0.00 33 1009.0
20260509194548 13 295 0.0 0.0 0.00 0.00 0.00 34 1008.9
20260509193045 13 274 0.0 0.0 0.00 0.00 0.00 34 1008.9
20260509191544 13 267 0.0 0.0 0.00 0.00 0.00 33 1008.7
20260509190043 13 329 0.0 0.0 0.00 0.00 0.00 35 1008.5
20260509184554 13 228 0.0 0.0 0.00 0.00 0.00 37 1008.3
20260509183037 12 321 0.0 0.0 0.00 0.00 0.00 37 1008.4
20260509181538 12 302 0.0 0.0 0.00 0.00 0.00 37 1008.3
20260509180033 12 309 0.0 0.0 0.00 0.00 0.00 39 1008.2
20260509174503 12 13 0.0 0.0 0.00 0.00 0.00 41 1008.3
20260509173001 12 304 0.0 0.0 0.00 0.00 0.00 42 1008.1
20260509171533 12 289 0.0 0.0 0.00 0.00 0.00 42 1007.8
20260509170029 12 324 0.0 0.0 0.00 0.00 0.00 41 1007.8
20260509164525 12 234 0.0 0.0 0.00 0.00 0.00 42 1007.7
20260509163025 12 318 0.0 0.0 0.00 0.00 0.00 42 1007.3
20260509161524 12 303 0.0 0.0 0.00 0.00 0.00 41 1007.2
20260509160024 12 302 0.0 0.0 0.00 0.00 0.00 42 1007.0
20260509154549 11 302 0.0 0.0 0.00 0.00 0.00 45 1006.8
20260509153052 11 279 0.0 0.0 0.00 0.00 0.00 46 1006.7